| time (UTC) | temp F | wind direction | speed MPH | gust MPH | rain 1hr in | rain 24hr in | rain mn in | humidity % | barometer mb |
| 20260831064157 | 79 | 192 | 4.0 | 6.0 | 0.00 | 0.00 | 0.00 | 75 | 1010.8 |
| 20260831063653 | 79 | 223 | 3.0 | 5.0 | 0.00 | 0.00 | 0.00 | 77 | 1010.8 |
| 20260831063143 | 79 | 157 | 5.0 | 7.0 | 0.00 | 0.00 | 0.00 | 76 | 1010.9 |
| 20260831062642 | 79 | 179 | 5.0 | 6.0 | 0.00 | 0.00 | 0.00 | 78 | 1011.0 |
| 20260831062136 | 79 | 190 | 4.0 | 6.0 | 0.00 | 0.00 | 0.00 | 78 | 1010.9 |
| 20260831061634 | 79 | 171 | 4.0 | 6.0 | 0.00 | 0.00 | 0.00 | 78 | 1011.2 |
| 20260831061130 | 78 | 177 | 4.0 | 5.0 | 0.00 | 0.00 | 0.00 | 79 | 1010.9 |
| 20260831060626 | 78 | 185 | 3.0 | 5.0 | 0.00 | 0.00 | 0.00 | 79 | 1011.1 |
| 20260831060120 | 79 | 192 | 4.0 | 5.0 | 0.00 | 0.00 | 0.00 | 79 | 1011.1 |
| 20260831055614 | 79 | 181 | 3.0 | 5.0 | 0.00 | 0.00 | 0.00 | 80 | 1010.9 |
| 20260831055110 | 79 | 180 | 3.0 | 6.0 | 0.00 | 0.00 | 0.00 | 80 | 1011.0 |
| 20260831054609 | 79 | 168 | 4.0 | 5.0 | 0.00 | 0.00 | 0.00 | 80 | 1011.0 |
| 20260831054109 | 79 | 201 | 3.0 | 5.0 | 0.00 | 0.00 | 0.00 | 80 | 1011.1 |
| 20260831053608 | 79 | 162 | 4.0 | 5.0 | 0.00 | 0.00 | 0.00 | 80 | 1010.9 |
| 20260831053102 | 79 | 188 | 4.0 | 8.0 | 0.00 | 0.00 | 0.00 | 79 | 1011.0 |
| 20260831052601 | 79 | 179 | 5.0 | 7.0 | 0.00 | 0.00 | 0.00 | 79 | 1010.9 |
| 20260831052056 | 79 | 166 | 4.0 | 7.0 | 0.00 | 0.00 | 0.00 | 79 | 1010.9 |
| 20260831051554 | 80 | 161 | 4.0 | 10.0 | 0.00 | 0.00 | 0.00 | 79 | 1010.7 |
| 20260831051053 | 80 | 178 | 5.0 | 8.0 | 0.00 | 0.00 | 0.00 | 79 | 1010.6 |
| 20260831050553 | 80 | 175 | 4.0 | 7.0 | 0.00 | 0.00 | 0.00 | 79 | 1010.7 |
| 20260831050051 | 80 | 189 | 4.0 | 8.0 | 0.00 | 0.00 | 0.00 | 79 | 1010.7 |
| 20260831045551 | 80 | 171 | 5.0 | 8.0 | 0.00 | 0.00 | 0.00 | 79 | 1010.7 |
| 20260831045046 | 80 | 240 | 4.0 | 6.0 | 0.00 | 0.00 | 0.00 | 80 | 1010.5 |
| 20260831044541 | 80 | 159 | 6.0 | 10.0 | 0.00 | 0.00 | 0.00 | 79 | 1010.7 |
| 20260831044036 | 80 | 178 | 3.0 | 6.0 | 0.00 | 0.00 | 0.00 | 80 | 1010.8 |
| 20260831043537 | 80 | 153 | 4.0 | 6.0 | 0.00 | 0.00 | 0.00 | 80 | 1010.7 |
| 20260831043032 | 80 | 184 | 4.0 | 6.0 | 0.00 | 0.00 | 0.00 | 79 | 1010.6 |
| 20260831042527 | 80 | 174 | 4.0 | 7.0 | 0.00 | 0.00 | 0.00 | 80 | 1010.7 |
| 20260831042026 | 80 | 159 | 3.0 | 6.0 | 0.00 | 0.00 | 0.00 | 80 | 1010.8 |
| 20260831041521 | 80 | 223 | 3.0 | 8.0 | 0.00 | 0.00 | 0.00 | 80 | 1010.8 |
| 20260831041015 | 80 | 197 | 4.0 | 6.0 | 0.00 | 0.00 | 0.00 | 80 | 1010.8 |
| 20260831040510 | 80 | 156 | 4.0 | 6.0 | 0.00 | 0.00 | 0.00 | 81 | 1010.8 |
| 20260831040009 | 80 | 204 | 4.0 | 6.0 | 0.00 | 0.00 | 0.00 | 81 | 1010.9 |
| 20260831035502 | 80 | 173 | 3.0 | 7.0 | 0.00 | 0.00 | 0.00 | 81 | 1010.8 |
| 20260831034957 | 80 | 184 | 4.0 | 8.0 | 0.00 | 0.00 | 0.00 | 81 | 1010.7 |
| 20260831034451 | 80 | 174 | 4.0 | 7.0 | 0.00 | 0.00 | 0.00 | 81 | 1010.9 |
| 20260831033947 | 80 | 186 | 6.0 | 9.0 | 0.00 | 0.00 | 0.00 | 82 | 1011.0 |
| 20260831033442 | 80 | 191 | 3.0 | 5.0 | 0.00 | 0.00 | 0.00 | 83 | 1010.8 |
| 20260831032937 | 80 | 176 | 3.0 | 5.0 | 0.00 | 0.00 | 0.00 | 83 | 1010.8 |
| 20260831032432 | 80 | 184 | 4.0 | 7.0 | 0.00 | 0.00 | 0.00 | 82 | 1011.0 |
| 20260831031927 | 80 | 172 | 5.0 | 6.0 | 0.00 | 0.00 | 0.00 | 82 | 1011.0 |
| 20260831031427 | 80 | 146 | 3.0 | 5.0 | 0.00 | 0.00 | 0.00 | 83 | 1011.0 |
| 20260831030921 | 79 | 225 | 3.0 | 5.0 | 0.00 | 0.00 | 0.00 | 84 | 1010.7 |
| 20260831030420 | 79 | 205 | 3.0 | 6.0 | 0.00 | 0.00 | 0.00 | 84 | 1011.0 |
| 20260831025919 | 80 | 179 | 3.0 | 3.0 | 0.00 | 0.00 | 0.00 | 84 | 1010.9 |
| 20260831025418 | 80 | 188 | 2.0 | 3.0 | 0.00 | 0.00 | 0.00 | 84 | 1010.9 |
| 20260831024914 | 80 | 162 | 4.0 | 5.0 | 0.00 | 0.00 | 0.00 | 84 | 1011.1 |
| 20260831024413 | 80 | 178 | 3.0 | 5.0 | 0.00 | 0.00 | 0.00 | 84 | 1010.9 |
| 20260831023913 | 80 | 164 | 4.0 | 5.0 | 0.00 | 0.00 | 0.00 | 84 | 1010.9 |
| 20260831023411 | 80 | 180 | 3.0 | 5.0 | 0.00 | 0.00 | 0.00 | 84 | 1011.0 |
| 20260831022907 | 81 | 168 | 3.0 | 5.0 | 0.00 | 0.00 | 0.00 | 83 | 1011.0 |
| 20260831022405 | 81 | 185 | 3.0 | 5.0 | 0.00 | 0.00 | 0.00 | 82 | 1010.9 |
| 20260831021900 | 81 | 172 | 3.0 | 3.0 | 0.00 | 0.00 | 0.00 | 82 | 1011.0 |
| 20260831021400 | 81 | 167 | 3.0 | 6.0 | 0.00 | 0.00 | 0.00 | 82 | 1011.1 |
| 20260831020856 | 81 | 155 | 4.0 | 5.0 | 0.00 | 0.00 | 0.00 | 82 | 1010.9 |
| 20260831020355 | 81 | 158 | 2.0 | 5.0 | 0.00 | 0.00 | 0.00 | 83 | 1011.0 |
| 20260831015851 | 81 | 186 | 3.0 | 6.0 | 0.00 | 0.00 | 0.00 | 83 | 1011.0 |
| 20260831015346 | 82 | 171 | 3.0 | 3.0 | 0.00 | 0.00 | 0.00 | 82 | 1011.1 |
| 20260831014846 | 82 | 183 | 2.0 | 3.0 | 0.00 | 0.00 | 0.00 | 82 | 1010.9 |
| 20260831014341 | 82 | 167 | 3.0 | 3.0 | 0.00 | 0.00 | 0.00 | 82 | 1010.9 |
| 20260831013837 | 82 | 190 | 2.0 | 5.0 | 0.00 | 0.00 | 0.00 | 82 | 1010.9 |
| 20260831013332 | 82 | 203 | 1.0 | 3.0 | 0.00 | 0.00 | 0.00 | 81 | 1010.8 |
| 20260831012826 | 82 | 188 | 3.0 | 3.0 | 0.00 | 0.00 | 0.00 | 81 | 1010.8 |
| 20260831012322 | 83 | 191 | 3.0 | 3.0 | 0.00 | 0.00 | 0.00 | 81 | 1010.7 |
| 20260831011821 | 83 | 186 | 3.0 | 3.0 | 0.00 | 0.00 | 0.00 | 81 | 1010.7 |
| 20260831011316 | 83 | 189 | 3.0 | 5.0 | 0.00 | 0.00 | 0.00 | 81 | 1010.8 |
| 20260831010812 | 83 | 211 | 2.0 | 3.0 | 0.00 | 0.00 | 0.00 | 81 | 1010.6 |
| 20260831010307 | 83 | 206 | 2.0 | 3.0 | 0.00 | 0.00 | 0.00 | 81 | 1010.6 |
| 20260831005803 | 83 | 225 | 2.0 | 2.0 | 0.00 | 0.00 | 0.00 | 81 | 1010.6 |
| 20260831005258 | 84 | 219 | 2.0 | 2.0 | 0.00 | 0.00 | 0.00 | 81 | 1010.6 |
| 20260831004752 | 84 | 250 | 2.0 | 2.0 | 0.00 | 0.00 | 0.00 | 81 | 1010.7 |
| 20260831004248 | 84 | 267 | 1.0 | 1.0 | 0.00 | 0.00 | 0.00 | 82 | 1010.5 |
| 20260831003744 | 84 | 259 | 1.0 | 2.0 | 0.00 | 0.00 | 0.00 | 81 | 1010.6 |
| 20260831003240 | 85 | 274 | 0.0 | 0.0 | 0.00 | 0.00 | 0.00 | 81 | 1010.5 |
| 20260831002739 | 85 | 238 | 2.0 | 3.0 | 0.00 | 0.00 | 0.00 | 80 | 1010.4 |
| 20260831002238 | 85 | 249 | 1.0 | 2.0 | 0.00 | 0.00 | 0.00 | 80 | 1010.4 |
| 20260831001735 | 85 | 195 | 2.0 | 2.0 | 0.00 | 0.00 | 0.00 | 79 | 1010.5 |
| 20260831001229 | 86 | 186 | 2.0 | 2.0 | 0.00 | 0.00 | 0.00 | 79 | 1010.4 |
| 20260831000726 | 86 | 233 | 1.0 | 2.0 | 0.00 | 0.00 | 0.00 | 79 | 1010.4 |
| 20260831000221 | 86 | 254 | 2.0 | 2.0 | 0.00 | 0.00 | 0.00 | 78 | 1010.2 |
| 20260830235720 | 86 | 184 | 3.0 | 5.0 | 0.00 | 0.00 | 0.00 | 78 | 1010.0 |
| 20260830235215 | 87 | 189 | 2.0 | 3.0 | 0.00 | 0.00 | 0.00 | 77 | 1010.2 |
| 20260830234710 | 87 | 253 | 2.0 | 5.0 | 0.00 | 0.00 | 0.00 | 76 | 1010.3 |
| 20260830234206 | 87 | 181 | 3.0 | 5.0 | 0.00 | 0.00 | 0.00 | 77 | 1009.9 |
| 20260830233701 | 87 | 161 | 6.0 | 7.0 | 0.00 | 0.00 | 0.00 | 77 | 1009.8 |
| 20260830233157 | 88 | 246 | 1.0 | 5.0 | 0.00 | 0.00 | 0.00 | 78 | 1009.9 |
| 20260830232652 | 88 | 192 | 3.0 | 5.0 | 0.00 | 0.00 | 0.00 | 77 | 1010.0 |
| 20260830232148 | 88 | 219 | 3.0 | 7.0 | 0.00 | 0.00 | 0.00 | 76 | 1009.8 |
| 20260830231645 | 88 | 182 | 6.0 | 7.0 | 0.00 | 0.00 | 0.00 | 76 | 1009.8 |
| 20260830231144 | 89 | 169 | 4.0 | 6.0 | 0.00 | 0.00 | 0.00 | 76 | 1009.9 |
| 20260830230639 | 89 | 216 | 5.0 | 6.0 | 0.00 | 0.00 | 0.00 | 76 | 1009.8 |
| 20260830230139 | 88 | 195 | 4.0 | 6.0 | 0.00 | 0.00 | 0.00 | 77 | 1009.8 |
| 20260830225634 | 88 | 182 | 5.0 | 7.0 | 0.00 | 0.00 | 0.00 | 78 | 1009.9 |
| 20260830225128 | 88 | 182 | 4.0 | 5.0 | 0.00 | 0.00 | 0.00 | 79 | 1009.9 |
| 20260830224627 | 89 | 202 | 5.0 | 6.0 | 0.00 | 0.00 | 0.00 | 78 | 1010.0 |
| 20260830224123 | 89 | 171 | 3.0 | 3.0 | 0.00 | 0.00 | 0.00 | 77 | 1009.9 |
| 20260830223620 | 89 | 215 | 3.0 | 5.0 | 0.00 | 0.00 | 0.00 | 78 | 1009.9 |
| 20260830223114 | 87 | 172 | 2.0 | 5.0 | 0.00 | 0.00 | 0.00 | 81 | 1010.0 |
| 20260830222609 | 87 | 159 | 3.0 | 7.0 | 0.00 | 0.00 | 0.00 | 81 | 1010.0 |
| 20260830222105 | 87 | 228 | 4.0 | 6.0 | 0.00 | 0.00 | 0.00 | 81 | 1009.9 |
| 20260830221600 | 86 | 199 | 4.0 | 5.0 | 0.00 | 0.00 | 0.00 | 81 | 1009.8 |
| 20260830221056 | 85 | 152 | 4.0 | 6.0 | 0.00 | 0.00 | 0.00 | 82 | 1009.7 |
| 20260830220551 | 85 | 179 | 3.0 | 5.0 | 0.00 | 0.00 | 0.00 | 83 | 1009.7 |
| 20260830220049 | 85 | 203 | 3.0 | 8.0 | 0.00 | 0.00 | 0.00 | 82 | 1009.8 |
| 20260830215544 | 85 | 170 | 3.0 | 8.0 | 0.00 | 0.00 | 0.00 | 82 | 1009.7 |
| 20260830215038 | 85 | 182 | 3.0 | 7.0 | 0.00 | 0.00 | 0.00 | 81 | 1009.9 |
| 20260830214533 | 85 | 187 | 3.0 | 11.0 | 0.00 | 0.00 | 0.00 | 80 | 1009.6 |
| 20260830214028 | 85 | 168 | 3.0 | 9.0 | 0.00 | 0.00 | 0.00 | 80 | 1010.3 |
| 20260830213527 | 85 | 186 | 3.0 | 7.0 | 0.00 | 0.00 | 0.00 | 79 | 1010.0 |
| 20260830213023 | 85 | 111 | 5.0 | 8.0 | 0.00 | 0.00 | 0.00 | 80 | 1010.0 |
| 20260830212518 | 84 | 182 | 1.0 | 5.0 | 0.00 | 0.00 | 0.00 | 80 | 1010.3 |
| 20260830212013 | 84 | 186 | 4.0 | 8.0 | 0.00 | 0.00 | 0.00 | 79 | 1010.4 |
| 20260830211508 | 85 | 158 | 4.0 | 7.0 | 0.00 | 0.00 | 0.00 | 79 | 1010.5 |
| 20260830211003 | 84 | 169 | 5.0 | 9.0 | 0.00 | 0.00 | 0.00 | 78 | 1010.4 |
| 20260830210503 | 84 | 214 | 5.0 | 8.0 | 0.00 | 0.00 | 0.00 | 78 | 1010.2 |
| 20260830210002 | 84 | 174 | 5.0 | 8.0 | 0.00 | 0.00 | 0.00 | 77 | 1010.5 |
| 20260830205500 | 85 | 112 | 5.0 | 7.0 | 0.00 | 0.00 | 0.00 | 77 | 1010.5 |
| 20260830204955 | 85 | 174 | 5.0 | 7.0 | 0.00 | 0.00 | 0.00 | 77 | 1010.8 |
| 20260830204454 | 85 | 210 | 3.0 | 6.0 | 0.00 | 0.00 | 0.00 | 77 | 1010.7 |
| 20260830203949 | 85 | 202 | 4.0 | 9.0 | 0.00 | 0.00 | 0.00 | 76 | 1010.6 |
| 20260830203446 | 85 | 184 | 5.0 | 8.0 | 0.00 | 0.00 | 0.00 | 76 | 1010.6 |
| 20260830202944 | 85 | 140 | 3.0 | 5.0 | 0.00 | 0.00 | 0.00 | 77 | 1010.7 |
| 20260830202440 | 85 | 194 | 2.0 | 3.0 | 0.00 | 0.00 | 0.00 | 76 | 1010.8 |
| 20260830201936 | 84 | 165 | 3.0 | 8.0 | 0.00 | 0.00 | 0.00 | 75 | 1010.9 |
| 20260830201429 | 84 | 241 | 4.0 | 8.0 | 0.00 | 0.00 | 0.00 | 75 | 1010.8 |
| 20260830200925 | 85 | 239 | 1.0 | 5.0 | 0.00 | 0.00 | 0.00 | 75 | 1010.9 |
| 20260830200420 | 85 | 195 | 4.0 | 6.0 | 0.00 | 0.00 | 0.00 | 74 | 1010.9 |
| 20260830195914 | 84 | 143 | 4.0 | 7.0 | 0.00 | 0.00 | 0.00 | 75 | 1011.2 |
| 20260830195415 | 84 | 217 | 5.0 | 8.0 | 0.00 | 0.00 | 0.00 | 74 | 1011.0 |
| 20260830194913 | 85 | 190 | 5.0 | 8.0 | 0.00 | 0.00 | 0.00 | 73 | 1011.3 |
| 20260830194412 | 85 | 223 | 4.0 | 5.0 | 0.00 | 0.00 | 0.00 | 75 | 1011.2 |
| 20260830193912 | 84 | 190 | 4.0 | 7.0 | 0.00 | 0.00 | 0.00 | 75 | 1011.4 |
| 20260830193411 | 84 | 186 | 2.0 | 6.0 | 0.00 | 0.00 | 0.00 | 76 | 1011.4 |
| 20260830192907 | 83 | 176 | 5.0 | 8.0 | 0.00 | 0.00 | 0.00 | 75 | 1011.2 |
| 20260830192403 | 83 | 176 | 3.0 | 5.0 | 0.00 | 0.00 | 0.00 | 78 | 1011.2 |
| 20260830191858 | 82 | 195 | 4.0 | 7.0 | 0.00 | 0.00 | 0.00 | 78 | 1011.5 |
| 20260830191357 | 82 | 156 | 4.0 | 7.0 | 0.00 | 0.00 | 0.00 | 76 | 1011.6 |
| 20260830190853 | 83 | 190 | 5.0 | 7.0 | 0.00 | 0.00 | 0.00 | 76 | 1011.7 |
| 20260830190348 | 83 | 229 | 5.0 | 7.0 | 0.00 | 0.00 | 0.00 | 74 | 1011.6 |
| 20260830185846 | 82 | 204 | 5.0 | 8.0 | 0.00 | 0.00 | 0.00 | 76 | 1011.6 |
| 20260830185342 | 82 | 187 | 3.0 | 6.0 | 0.00 | 0.00 | 0.00 | 78 | 1011.6 |
| 20260830184837 | 82 | 212 | 5.0 | 6.0 | 0.00 | 0.00 | 0.00 | 77 | 1011.6 |
| 20260830184336 | 82 | 176 | 3.0 | 5.0 | 0.00 | 0.00 | 0.00 | 76 | 1011.6 |
| 20260830183831 | 81 | 254 | 5.0 | 7.0 | 0.00 | 0.00 | 0.00 | 77 | 1011.5 |
| 20260830183330 | 81 | 235 | 3.0 | 5.0 | 0.00 | 0.00 | 0.00 | 78 | 1011.7 |
| 20260830182826 | 81 | 204 | 3.0 | 6.0 | 0.00 | 0.00 | 0.00 | 78 | 1011.7 |
| 20260830182322 | 80 | 233 | 3.0 | 6.0 | 0.00 | 0.00 | 0.00 | 78 | 1011.7 |
| 20260830181818 | 80 | 241 | 3.0 | 5.0 | 0.00 | 0.00 | 0.00 | 77 | 1011.7 |
| 20260830181313 | 80 | 247 | 2.0 | 6.0 | 0.00 | 0.00 | 0.00 | 78 | 1012.1 |
| 20260830180807 | 80 | 193 | 4.0 | 7.0 | 0.00 | 0.00 | 0.00 | 77 | 1011.9 |
| 20260830180302 | 80 | 254 | 2.0 | 7.0 | 0.00 | 0.00 | 0.00 | 78 | 1011.9 |
| 20260830175800 | 80 | 154 | 6.0 | 9.0 | 0.00 | 0.00 | 0.00 | 76 | 1011.9 |
| 20260830175256 | 80 | 183 | 4.0 | 6.0 | 0.00 | 0.00 | 0.00 | 77 | 1012.0 |
| 20260830174756 | 80 | 225 | 3.0 | 5.0 | 0.00 | 0.00 | 0.00 | 77 | 1012.2 |
| 20260830174252 | 80 | 223 | 7.0 | 8.0 | 0.00 | 0.00 | 0.00 | 76 | 1012.1 |
| 20260830173751 | 80 | 206 | 4.0 | 6.0 | 0.00 | 0.00 | 0.00 | 78 | 1012.0 |
| 20260830173246 | 80 | 228 | 3.0 | 6.0 | 0.00 | 0.00 | 0.00 | 80 | 1012.3 |
| 20260830172743 | 80 | 218 | 4.0 | 8.0 | 0.00 | 0.00 | 0.00 | 79 | 1012.1 |
| 20260830172240 | 80 | 208 | 3.0 | 5.0 | 0.00 | 0.00 | 0.00 | 79 | 1012.1 |
| 20260830171735 | 81 | 171 | 2.0 | 3.0 | 0.00 | 0.00 | 0.00 | 78 | 1012.2 |
| 20260830171230 | 80 | 211 | 4.0 | 8.0 | 0.00 | 0.00 | 0.00 | 79 | 1012.2 |
| 20260830170725 | 80 | 243 | 1.0 | 3.0 | 0.00 | 0.00 | 0.00 | 79 | 1012.4 |
| 20260830170224 | 79 | 247 | 2.0 | 5.0 | 0.00 | 0.00 | 0.00 | 79 | 1012.5 |
| 20260830165723 | 79 | 160 | 3.0 | 3.0 | 0.00 | 0.00 | 0.00 | 78 | 1012.6 |
| 20260830165219 | 79 | 268 | 1.0 | 3.0 | 0.00 | 0.00 | 0.00 | 80 | 1012.4 |
| 20260830164715 | 79 | 292 | 0.0 | 3.0 | 0.00 | 0.00 | 0.00 | 82 | 1012.4 |
| 20260830164211 | 78 | 268 | 1.0 | 2.0 | 0.00 | 0.00 | 0.00 | 81 | 1012.7 |
| 20260830163707 | 78 | 262 | 1.0 | 2.0 | 0.00 | 0.00 | 0.00 | 84 | 1012.7 |
| 20260830163203 | 77 | 270 | 1.0 | 1.0 | 0.00 | 0.00 | 0.00 | 82 | 1012.9 |
| 20260830162657 | 77 | 333 | 0.0 | 0.0 | 0.00 | 0.00 | 0.00 | 85 | 1012.8 |
| 20260830162153 | 76 | 306 | 0.0 | 1.0 | 0.00 | 0.00 | 0.00 | 85 | 1012.8 |
| 20260830161648 | 76 | 305 | 1.0 | 1.0 | 0.00 | 0.00 | 0.00 | 89 | 1012.9 |
| 20260830161142 | 75 | 305 | 0.0 | 0.0 | 0.00 | 0.00 | 0.00 | 88 | 1012.8 |
| 20260830160639 | 75 | 304 | 1.0 | 1.0 | 0.00 | 0.00 | 0.00 | 88 | 1012.8 |
| 20260830160139 | 75 | 291 | 0.0 | 2.0 | 0.00 | 0.00 | 0.00 | 88 | 1012.6 |
| 20260830155636 | 75 | 265 | 2.0 | 2.0 | 0.00 | 0.00 | 0.00 | 86 | 1012.7 |
| 20260830155131 | 76 | 226 | 4.0 | 6.0 | 0.00 | 0.00 | 0.00 | 85 | 1012.5 |
| 20260830154626 | 76 | 172 | 5.0 | 6.0 | 0.00 | 0.00 | 0.00 | 84 | 1012.4 |
| 20260830154122 | 76 | 198 | 4.0 | 6.0 | 0.00 | 0.00 | 0.00 | 85 | 1012.3 |
| 20260830153618 | 76 | 197 | 5.0 | 8.0 | 0.00 | 0.00 | 0.00 | 84 | 1012.2 |
| 20260830153118 | 76 | 209 | 4.0 | 5.0 | 0.00 | 0.00 | 0.00 | 86 | 1012.4 |
| 20260830152617 | 76 | 199 | 5.0 | 6.0 | 0.00 | 0.00 | 0.00 | 85 | 1012.1 |
| 20260830152116 | 75 | 223 | 4.0 | 5.0 | 0.00 | 0.00 | 0.00 | 84 | 1012.0 |
| 20260830151611 | 75 | 220 | 4.0 | 5.0 | 0.00 | 0.00 | 0.00 | 85 | 1012.1 |
| 20260830151106 | 75 | 225 | 5.0 | 7.0 | 0.00 | 0.00 | 0.00 | 85 | 1011.8 |
| 20260830150601 | 75 | 210 | 5.0 | 9.0 | 0.00 | 0.00 | 0.00 | 85 | 1011.9 |
| 20260830150055 | 75 | 229 | 6.0 | 8.0 | 0.00 | 0.00 | 0.00 | 84 | 1012.0 |
| 20260830145555 | 75 | 204 | 4.0 | 6.0 | 0.00 | 0.00 | 0.00 | 85 | 1011.9 |
| 20260830145050 | 75 | 222 | 4.0 | 5.0 | 0.00 | 0.00 | 0.00 | 85 | 1011.9 |
| 20260830144546 | 75 | 192 | 4.0 | 6.0 | 0.00 | 0.00 | 0.00 | 85 | 1012.1 |
| 20260830144042 | 75 | 215 | 4.0 | 7.0 | 0.00 | 0.00 | 0.00 | 84 | 1011.8 |
| 20260830143538 | 75 | 202 | 6.0 | 8.0 | 0.00 | 0.00 | 0.00 | 83 | 1011.7 |
| 20260830143035 | 75 | 240 | 5.0 | 7.0 | 0.00 | 0.00 | 0.00 | 82 | 1011.7 |
| 20260830142531 | 75 | 210 | 7.0 | 9.0 | 0.00 | 0.00 | 0.00 | 81 | 1011.9 |
| 20260830142026 | 75 | 217 | 5.0 | 9.0 | 0.00 | 0.00 | 0.00 | 81 | 1011.8 |
| 20260830141521 | 76 | 216 | 5.0 | 8.0 | 0.00 | 0.00 | 0.00 | 81 | 1011.7 |
| 20260830141016 | 76 | 246 | 2.0 | 9.0 | 0.00 | 0.00 | 0.00 | 81 | 1011.8 |
| 20260830140516 | 76 | 231 | 7.0 | 11.0 | 0.00 | 0.00 | 0.00 | 79 | 1011.7 |
| 20260830140012 | 76 | 229 | 5.0 | 9.0 | 0.00 | 0.00 | 0.00 | 80 | 1011.6 |
| 20260830135506 | 76 | 241 | 6.0 | 10.0 | 0.00 | 0.00 | 0.00 | 80 | 1011.9 |
| 20260830135001 | 75 | 208 | 7.0 | 10.0 | 0.00 | 0.00 | 0.00 | 79 | 1011.6 |
| 20260830134456 | 75 | 203 | 5.0 | 8.0 | 0.00 | 0.00 | 0.00 | 79 | 1011.5 |
| 20260830133946 | 76 | 269 | 5.0 | 8.0 | 0.00 | 0.00 | 0.00 | 79 | 1011.5 |
| 20260830133442 | 76 | 141 | 7.0 | 10.0 | 0.00 | 0.00 | 0.00 | 79 | 1011.2 |
| 20260830132937 | 76 | 189 | 4.0 | 9.0 | 0.00 | 0.00 | 0.00 | 79 | 1011.2 |
| 20260830132433 | 77 | 220 | 6.0 | 11.0 | 0.00 | 0.00 | 0.00 | 77 | 1011.1 |
| 20260830131931 | 77 | 209 | 7.0 | 9.0 | 0.00 | 0.00 | 0.00 | 74 | 1011.1 |
| 20260830131426 | 78 | 199 | 9.0 | 11.0 | 0.00 | 0.00 | 0.00 | 71 | 1011.3 |
| 20260830130920 | 78 | 216 | 6.0 | 10.0 | 0.00 | 0.00 | 0.00 | 71 | 1011.2 |
| 20260830130416 | 78 | 222 | 9.0 | 14.0 | 0.00 | 0.00 | 0.00 | 70 | 1011.4 |
| 20260830125915 | 79 | 205 | 6.0 | 10.0 | 0.00 | 0.00 | 0.00 | 71 | 1011.4 |
| 20260830125411 | 79 | 208 | 8.0 | 13.0 | 0.00 | 0.00 | 0.00 | 71 | 1011.2 |
| 20260830124908 | 78 | 239 | 8.0 | 13.0 | 0.00 | 0.00 | 0.00 | 70 | 1011.3 |
| 20260830124403 | 78 | 207 | 8.0 | 16.0 | 0.00 | 0.00 | 0.00 | 72 | 1011.1 |
| 20260830123900 | 78 | 216 | 8.0 | 15.0 | 0.00 | 0.00 | 0.00 | 71 | 1011.4 |
| 20260830123356 | 78 | 287 | 9.0 | 14.0 | 0.00 | 0.00 | 0.00 | 71 | 1011.4 |
| 20260830122854 | 78 | 260 | 8.0 | 13.0 | 0.00 | 0.00 | 0.00 | 71 | 1011.4 |
| 20260830122348 | 78 | 216 | 10.0 | 13.0 | 0.00 | 0.00 | 0.00 | 71 | 1011.3 |
| 20260830121844 | 78 | 214 | 5.0 | 10.0 | 0.00 | 0.00 | 0.00 | 71 | 1011.4 |
| 20260830121344 | 78 | 192 | 8.0 | 10.0 | 0.00 | 0.00 | 0.00 | 71 | 1011.4 |
| 20260830120839 | 78 | 219 | 9.0 | 11.0 | 0.00 | 0.00 | 0.00 | 71 | 1011.3 |
| 20260830120334 | 78 | 226 | 8.0 | 11.0 | 0.00 | 0.00 | 0.00 | 70 | 1011.3 |
| 20260830115831 | 78 | 201 | 6.0 | 9.0 | 0.00 | 0.00 | 0.00 | 71 | 1011.3 |
| 20260830115327 | 78 | 183 | 7.0 | 11.0 | 0.00 | 0.00 | 0.00 | 70 | 1011.3 |
| 20260830114822 | 78 | 231 | 7.0 | 9.0 | 0.00 | 0.00 | 0.00 | 70 | 1011.1 |
| 20260830114318 | 78 | 219 | 4.0 | 9.0 | 0.00 | 0.00 | 0.00 | 71 | 1011.3 |
| 20260830113812 | 78 | 210 | 8.0 | 13.0 | 0.00 | 0.00 | 0.00 | 69 | 1011.3 |
| 20260830113308 | 78 | 194 | 5.0 | 13.0 | 0.00 | 0.00 | 0.00 | 71 | 1010.9 |
| 20260830112804 | 78 | 211 | 11.0 | 14.0 | 0.00 | 0.00 | 0.00 | 70 | 1010.9 |
| 20260830112259 | 78 | 220 | 6.0 | 13.0 | 0.00 | 0.00 | 0.00 | 71 | 1010.8 |
| 20260830111755 | 78 | 194 | 8.0 | 14.0 | 0.00 | 0.00 | 0.00 | 70 | 1010.9 |
| 20260830111250 | 78 | 215 | 7.0 | 13.0 | 0.00 | 0.00 | 0.00 | 70 | 1010.9 |
| 20260830110750 | 78 | 211 | 7.0 | 16.0 | 0.00 | 0.00 | 0.00 | 70 | 1011.0 |
| 20260830110247 | 78 | 195 | 9.0 | 17.0 | 0.00 | 0.00 | 0.00 | 70 | 1010.9 |
| 20260830105745 | 78 | 201 | 7.0 | 11.0 | 0.00 | 0.00 | 0.00 | 72 | 1011.0 |
| 20260830105241 | 78 | 218 | 8.0 | 13.0 | 0.00 | 0.00 | 0.00 | 71 | 1011.1 |
| 20260830104738 | 78 | 211 | 9.0 | 13.0 | 0.00 | 0.00 | 0.00 | 71 | 1011.0 |
| 20260830104235 | 78 | 221 | 9.0 | 13.0 | 0.00 | 0.00 | 0.00 | 71 | 1010.9 |
| 20260830103734 | 78 | 211 | 7.0 | 14.0 | 0.00 | 0.00 | 0.00 | 71 | 1011.0 |
| 20260830103230 | 78 | 210 | 7.0 | 11.0 | 0.00 | 0.00 | 0.00 | 72 | 1011.0 |
| 20260830102727 | 78 | 199 | 9.0 | 15.0 | 0.00 | 0.00 | 0.00 | 72 | 1011.2 |
| 20260830102224 | 78 | 221 | 11.0 | 14.0 | 0.00 | 0.00 | 0.00 | 72 | 1011.0 |
| 20260830101719 | 78 | 212 | 10.0 | 14.0 | 0.00 | 0.00 | 0.00 | 72 | 1011.2 |
| 20260830101214 | 78 | 173 | 7.0 | 16.0 | 0.00 | 0.00 | 0.00 | 73 | 1011.1 |
| 20260830100708 | 78 | 209 | 7.0 | 10.0 | 0.00 | 0.00 | 0.00 | 72 | 1011.0 |
| 20260830100203 | 78 | 228 | 8.0 | 11.0 | 0.00 | 0.00 | 0.00 | 72 | 1011.1 |
| 20260830095701 | 78 | 230 | 8.0 | 14.0 | 0.00 | 0.00 | 0.00 | 72 | 1011.2 |
| 20260830095157 | 78 | 208 | 7.0 | 11.0 | 0.00 | 0.00 | 0.00 | 72 | 1011.1 |
| 20260830094653 | 78 | 212 | 5.0 | 13.0 | 0.00 | 0.00 | 0.00 | 72 | 1011.2 |
| 20260830094143 | 78 | 186 | 11.0 | 14.0 | 0.00 | 0.00 | 0.00 | 72 | 1011.1 |
| 20260830093638 | 78 | 204 | 6.0 | 10.0 | 0.00 | 0.00 | 0.00 | 73 | 1011.3 |
| 20260830093135 | 78 | 180 | 6.0 | 13.0 | 0.00 | 0.00 | 0.00 | 73 | 1011.3 |
| 20260830092629 | 78 | 230 | 9.0 | 10.0 | 0.00 | 0.00 | 0.00 | 73 | 1011.2 |
| 20260830092127 | 77 | 214 | 6.0 | 11.0 | 0.00 | 0.00 | 0.00 | 74 | 1011.3 |
| 20260830091621 | 77 | 218 | 5.0 | 9.0 | 0.00 | 0.00 | 0.00 | 75 | 1011.1 |
| 20260830091119 | 77 | 174 | 7.0 | 9.0 | 0.00 | 0.00 | 0.00 | 75 | 1011.2 |
| 20260830090610 | 77 | 204 | 8.0 | 10.0 | 0.00 | 0.00 | 0.00 | 74 | 1011.1 |
| 20260830090105 | 77 | 196 | 5.0 | 11.0 | 0.00 | 0.00 | 0.00 | 75 | 1011.2 |
| 20260830085604 | 77 | 206 | 7.0 | 10.0 | 0.00 | 0.00 | 0.00 | 75 | 1011.3 |
| 20260830085100 | 77 | 193 | 7.0 | 11.0 | 0.00 | 0.00 | 0.00 | 74 | 1011.1 |
| 20260830084556 | 77 | 213 | 8.0 | 11.0 | 0.00 | 0.00 | 0.00 | 75 | 1011.2 |
| 20260830084056 | 77 | 222 | 7.0 | 10.0 | 0.00 | 0.00 | 0.00 | 75 | 1011.3 |
| 20260830083551 | 78 | 194 | 8.0 | 13.0 | 0.00 | 0.00 | 0.00 | 74 | 1011.2 |
| 20260830083051 | 78 | 175 | 8.0 | 13.0 | 0.00 | 0.00 | 0.00 | 74 | 1011.1 |
| 20260830082546 | 78 | 220 | 10.0 | 13.0 | 0.00 | 0.00 | 0.00 | 73 | 1011.2 |
| 20260830082042 | 78 | 187 | 8.0 | 11.0 | 0.00 | 0.00 | 0.00 | 74 | 1011.1 |
| 20260830081537 | 77 | 197 | 6.0 | 13.0 | 0.00 | 0.00 | 0.00 | 75 | 1011.2 |
| 20260830081036 | 77 | 215 | 5.0 | 9.0 | 0.00 | 0.00 | 0.00 | 75 | 1011.2 |
| 20260830080531 | 77 | 178 | 5.0 | 9.0 | 0.00 | 0.00 | 0.00 | 76 | 1011.2 |
| 20260830080026 | 77 | 219 | 9.0 | 11.0 | 0.00 | 0.00 | 0.00 | 75 | 1010.9 |
| 20260830075521 | 77 | 186 | 8.0 | 15.0 | 0.00 | 0.00 | 0.00 | 75 | 1010.9 |
| 20260830075021 | 77 | 195 | 6.0 | 8.0 | 0.00 | 0.00 | 0.00 | 76 | 1011.0 |
| 20260830074518 | 77 | 222 | 7.0 | 11.0 | 0.00 | 0.00 | 0.00 | 76 | 1010.9 |
| 20260830074013 | 77 | 178 | 7.0 | 11.0 | 0.00 | 0.00 | 0.00 | 75 | 1011.1 |
| 20260830073509 | 78 | 153 | 4.0 | 10.0 | 0.00 | 0.00 | 0.00 | 76 | 1011.1 |
| 20260830073004 | 78 | 204 | 6.0 | 17.0 | 0.00 | 0.00 | 0.00 | 75 | 1011.0 |
| 20260830072459 | 78 | 199 | 7.0 | 10.0 | 0.00 | 0.00 | 0.00 | 75 | 1011.1 |
| 20260830071954 | 78 | 212 | 7.0 | 10.0 | 0.00 | 0.00 | 0.00 | 75 | 1011.1 |
| 20260830071450 | 78 | 205 | 7.0 | 9.0 | 0.00 | 0.00 | 0.00 | 76 | 1011.0 |
| 20260830070947 | 78 | 206 | 7.0 | 9.0 | 0.00 | 0.00 | 0.00 | 75 | 1011.1 |
| 20260830070442 | 78 | 199 | 7.0 | 10.0 | 0.00 | 0.00 | 0.00 | 75 | 1011.1 |
| 20260830065941 | 78 | 198 | 10.0 | 13.0 | 0.00 | 0.00 | 0.00 | 74 | 1011.1 |
| 20260830065436 | 78 | 156 | 4.0 | 8.0 | 0.00 | 0.00 | 0.00 | 76 | 1011.3 |
| 20260830064933 | 78 | 190 | 7.0 | 10.0 | 0.00 | 0.00 | 0.00 | 75 | 1011.3 |
| 20260830064430 | 78 | 181 | 6.0 | 7.0 | 0.00 | 0.00 | 0.00 | 75 | 1011.2 |